Location: Big Meadows
(38.5260°N, 78.4400°W)
Time: 12:31:41
(UTC-05:00)

Amateur Radio Satellites - All Passes

Search period start: 22 February 2017 12:01
Search period end: 23 February 2017 12:01
Location: Big Meadows, 38.5260°N, 78.4400°W

Satellite Date Start Highest point End Downlink Frequencies (MHz)
Time Altitude Azimuth
Gurwin Techsat 1B 22 Feb 12:02:15 12:05:21 16° 62° (ENE) 12:08:28 435.225
UKube-1 22 Feb 12:13:47 12:16:23 16° 93° (E) 12:18:59 .
DUCHIFAT 1 22 Feb 12:19:52 12:22:49 18° 266° (W) 12:25:47 145.980
SPROUT 22 Feb 12:24:22 12:28:38 58° 101° (E) 12:32:52 437.525
EO-79 22 Feb 12:27:40 12:29:39 13° 268° (W) 12:31:38 145.935-145.965
ESTCUBE 1 22 Feb 12:46:57 12:50:22 22° 292° (WNW) 12:53:46 437.505/2401.250
YUBILEINY 22 Feb 13:15:21 13:19:53 15° 299° (WNW) 13:24:26 435.215
Oscar 19 22 Feb 13:22:05 13:27:05 50° 260° (W) 13:32:06 437.125/150
50 SAT 22 Feb 13:26:39 13:29:23 22° 290° (WNW) 13:32:06 437.505
VELOX 1 22 Feb 13:27:06 13:30:36 24° 292° (WNW) 13:34:07 145.980
DX 1 22 Feb 13:29:24 13:33:37 48° 287° (WNW) 13:37:47 434.975-435.025
AO-85 22 Feb 13:33:00 13:36:32 31° 53° (NE) 13:40:05 145.980
Gurwin Techsat 1B 22 Feb 13:39:27 13:44:43 65° 258° (WSW) 13:50:01 435.225
UKube-1 22 Feb 13:48:31 13:52:34 41° 289° (WNW) 13:56:38 .
ITAMSAT 1 22 Feb 13:48:56 13:53:21 29° 67° (ENE) 13:57:46 435.822/435.867
ISS 22 Feb 13:52:47 13:54:09 12° 16° (NNE) 13:55:33 437.550
AO-7 22 Feb 13:58:24 14:06:04 42° 63° (ENE) 14:13:45 .
SPROUT 22 Feb 14:02:19 14:04:01 12° 296° (WNW) 14:05:44 437.525
ITUPSAT 1 22 Feb 14:07:41 14:11:04 19° 94° (E) 14:14:25 437.325
BEESAT 22 Feb 14:16:12 14:20:03 24° 95° (E) 14:23:52 436.000
Tancredo 1 22 Feb 14:25:59 14:28:12 17° 23° (NNE) 14:30:25 437.200
BEESAT 3 22 Feb 15:06:00 15:08:55 19° 48° (NE) 15:11:49 437.485
MOZHAYETS 4 22 Feb 15:06:35 15:10:33 28° 96° (E) 15:14:30
AO-85 22 Feb 15:13:53 15:16:41 19° 248° (WSW) 15:19:32 145.980
ITAMSAT 1 22 Feb 15:28:03 15:32:40 33° 263° (W) 15:37:21 435.822/435.867
ISS 22 Feb 15:28:05 15:31:17 46° 35° (NE) 15:34:26 437.550
RS-15 22 Feb 15:34:21 15:38:19 12° 94° (E) 15:42:20 29.354- 29.394
BEESAT 2 22 Feb 15:36:57 15:39:42 17° 47° (NE) 15:42:27 435.950
ITUPSAT 1 22 Feb 15:44:31 15:49:02 42° 289° (WNW) 15:53:32 437.325
PCSat 22 Feb 15:45:55 15:49:43 20° 105° (ESE) 15:53:33 145.827
AO-7 22 Feb 15:50:55 15:58:43 43° 260° (W) 16:06:35 .
BEESAT 22 Feb 15:53:34 15:57:50 33° 291° (WNW) 16:02:06 436.000
CUBESAT XI-V 22 Feb 15:58:03 16:00:41 15° 92° (E) 16:03:18 437.345
Tancredo 1 22 Feb 16:01:36 16:04:50 75° 218° (SW) 16:08:00 437.200
KKS-1 22 Feb 16:01:38 16:05:26 27° 96° (E) 16:09:13 437.445
CUTE-I 22 Feb 16:15:03 16:17:16 13° 60° (ENE) 16:19:30 437.470
BEESAT 3 22 Feb 16:42:55 16:46:40 38° 245° (WSW) 16:50:23 437.485
M-CUBED/EXP-1 PRIME 22 Feb 16:43:25 16:45:42 15° 100° (E) 16:48:04 437.505
MOZHAYETS 4 22 Feb 16:43:46 16:47:36 26° 291° (WNW) 16:51:24
STARS 22 Feb 16:44:40 16:48:44 35° 98° (E) 16:52:47 437.465
DOVE 4 22 Feb 16:47:48 16:50:59 22° 69° (ENE) 16:54:11 437.250
ISS 22 Feb 17:05:19 17:07:28 16° 230° (SW) 17:09:36 437.550
XW-2F 22 Feb 17:13:26 17:16:58 37° 73° (ENE) 17:20:32 145.980 - 146.000
BEESAT 2 22 Feb 17:13:50 17:17:43 45° 244° (WSW) 17:21:33 435.950
KAITUO 1B 22 Feb 17:14:17 17:17:41 31° 72° (ENE) 17:21:06 145.475/437.950
XW-2D 22 Feb 17:15:58 17:19:36 42° 74° (ENE) 17:23:16 145.860 - 145.880
XW-2B 22 Feb 17:20:52 17:24:33 47° 74° (ENE) 17:28:17 145.730 - 145.750
PCSat 22 Feb 17:27:24 17:32:40 52° 302° (WNW) 17:37:59 145.827
XW-2C 22 Feb 17:29:14 17:33:02 63° 76° (ENE) 17:36:52 145.795 - 145.815
CUBESAT XI-V 22 Feb 17:33:53 17:38:18 48° 287° (WNW) 17:42:41 437.345
RS-15 22 Feb 17:36:33 17:48:10 66° 113° (ESE) 18:00:17 29.354- 29.394
KKS-1 22 Feb 17:38:10 17:41:53 26° 291° (WNW) 17:45:35 437.445
LilacSat-2 22 Feb 17:42:33 17:46:25 83° 258° (WSW) 17:50:19 437.200
CUTE-I 22 Feb 17:51:14 17:56:33 83° 257° (WSW) 18:01:56 437.470
NUDT-PHONESAT 22 Feb 17:52:46 17:56:31 79° 260° (W) 18:00:18 437.300
HO-68 22 Feb 17:58:15 18:04:26 33° 63° (ENE) 18:10:37 435.675
SEEDS 22 Feb 18:08:41 18:10:31 13° 65° (ENE) 18:12:23 437.485
M-CUBED/EXP-1 PRIME 22 Feb 18:16:47 18:20:12 35° 292° (WNW) 18:23:51 437.505
STRAND 1 22 Feb 18:20:40 18:22:50 13° 90° (E) 18:24:59 437.568
STARS 22 Feb 18:21:35 18:24:49 20° 293° (WNW) 18:28:03 437.465
XW-2A 22 Feb 18:23:09 18:26:18 38° 74° (ENE) 18:29:30 145.665 - 145.685
DOVE 4 22 Feb 18:25:04 18:28:34 26° 264° (W) 18:32:05 437.250
CUBEBUG 2 22 Feb 18:25:40 18:27:56 14° 64° (ENE) 18:30:14 437.445
CUTE 1.7 + AOD 2 22 Feb 18:38:23 18:42:25 41° 73° (ENE) 18:46:27 437.475
XW-2F 22 Feb 18:49:19 18:51:16 13° 268° (W) 18:53:13 145.980 - 146.000
KAITUO 1B 22 Feb 18:49:27 18:51:46 15° 267° (W) 18:54:07 145.475/437.950
XW-2D 22 Feb 18:52:32 18:54:00 12° 269° (W) 18:55:27 145.860 - 145.880
XW-2B 22 Feb 18:58:12 18:59:00 11° 269° (W) 18:59:48 145.730 - 145.750
Oscar 11 22 Feb 19:04:52 19:05:28 10° 63° (ENE) 19:06:03 .
UWE-3 22 Feb 19:08:14 19:11:50 25° 68° (ENE) 19:15:31 435.000/436.395/437.385
ZACube-1 22 Feb 19:36:09 19:39:59 29° 70° (ENE) 19:43:54 437.345
AAUSAT CUBESAT 2 22 Feb 19:40:10 19:44:18 69° 76° (ENE) 19:48:27 437.432
SEEDS 22 Feb 19:41:35 19:45:44 53° 260° (W) 19:49:54 437.485
HO-68 22 Feb 19:45:02 19:51:53 47° 260° (W) 19:58:46 435.675
RS-15 22 Feb 19:50:15 20:01:25 42° 317° (NW) 20:12:58 29.354- 29.394
STRAND 1 22 Feb 19:57:20 20:02:28 70° 286° (WNW) 20:07:35 437.568
CUBEBUG 2 22 Feb 19:59:46 20:04:01 53° 260° (W) 20:08:27 437.445
DELFI C3 22 Feb 20:07:30 20:09:45 15° 67° (ENE) 20:12:00 145.870
CUTE 1.7 + AOD 2 22 Feb 20:15:53 20:18:25 15° 268° (W) 20:20:56 437.475
AO-73 22 Feb 20:25:48 20:30:12 84° 259° (WSW) 20:34:44 145.935
Oscar 11 22 Feb 20:36:38 20:40:57 72° 258° (WSW) 20:45:20 .
UWE-3 22 Feb 20:44:22 20:48:09 28° 265° (W) 20:52:02 435.000/436.395/437.385
UNISAT 6 22 Feb 21:02:34 21:02:37 10° 89° (E) 21:02:41 437.425
ZACube-1 22 Feb 21:12:43 21:16:14 23° 266° (W) 21:19:51 437.345
FO-29 22 Feb 21:16:55 21:19:19 12° 84° (E) 21:21:40 435.910
YUBILEINY 22 Feb 21:24:59 21:33:24 49° 76° (ENE) 21:41:43 435.215
DELFI C3 22 Feb 21:40:30 21:44:13 38° 262° (W) 21:47:56 145.870
PRISM 22 Feb 21:44:28 21:48:33 78° 104° (ESE) 21:52:37 437.425
SO-50 22 Feb 22:03:24 22:07:10 24° 112° (ESE) 22:10:54 436.795
ESTCUBE 1 22 Feb 22:07:58 22:11:42 26° 69° (ENE) 22:15:27 437.505/2401.250
RS-15 22 Feb 22:10:32 22:18:46 20° 350° (N) 22:27:03 29.354- 29.394
UNISAT 6 22 Feb 22:35:05 22:39:48 74° 285° (WNW) 22:44:27 437.425
TIGRISAT 22 Feb 22:36:19 22:41:03 77° 284° (WNW) 22:45:42 435.000
VELOX 1 22 Feb 22:46:41 22:50:03 22° 68° (ENE) 22:53:26 145.980
DX 1 22 Feb 22:50:52 22:51:43 11° 62° (ENE) 22:52:34 434.975-435.025
POLYITAN 1 22 Feb 22:53:37 22:55:50 14° 92° (E) 22:58:01 437.675
O/OREOS (USA 219) 22 Feb 22:55:07 22:59:22 45° 106° (ESE) 23:03:40 437.305
QB50P2 22 Feb 22:56:04 22:58:42 16° 93° (E) 23:01:20 145.880/145.840
NANOSAT C BR1 22 Feb 22:56:05 22:58:08 13° 92° (E) 23:00:10 145.865
AIST 2D 22 Feb 22:56:59 22:59:51 22° 95° (E) 23:02:41 435.315
FO-29 22 Feb 22:57:52 23:05:37 75° 102° (ESE) 23:12:37 435.910
UKube-1 22 Feb 23:08:10 23:09:44 12° 63° (ENE) 23:11:20 .
SPROUT 22 Feb 23:16:17 23:20:09 35° 71° (ENE) 23:24:03 437.525
YUBILEINY 22 Feb 23:22:19 23:29:49 34° 275° (W) 23:37:18 435.215
BUGSAT 1 22 Feb 23:39:17 23:41:03 12° 92° (E) 23:42:50 437.445
SO-50 22 Feb 23:43:07 23:47:26 36° 307° (NW) 23:51:44 436.795
ESTCUBE 1 22 Feb 23:44:32 23:48:23 27° 264° (W) 23:52:15 437.505/2401.250
JUGNU 22 Feb 23:56:51 23:58:54 12° 179° (S) 00:00:56 437.505
50 SAT 22 Feb 23:58:19 00:01:49 76° 258° (WSW) 00:05:20 437.505
DUCHIFAT 1 23 Feb 00:03:37 00:07:53 75° 102° (ESE) 00:12:08 145.980
EO-79 23 Feb 00:10:58 00:15:16 74° 284° (WNW) 00:19:31 145.935-145.965
VELOX 1 23 Feb 00:22:26 00:26:19 30° 263° (W) 00:30:12 145.980
DX 1 23 Feb 00:23:00 00:27:17 69° 257° (WSW) 00:31:37 434.975-435.025
POLYITAN 1 23 Feb 00:27:42 00:31:50 46° 287° (WNW) 00:35:56 437.675
RS-15 23 Feb 00:27:51 00:37:37 26° 27° (NNE) 00:47:10 29.354- 29.394
NANOSAT C BR1 23 Feb 00:29:58 00:34:06 48° 286° (WNW) 00:38:11 145.865
AIST 2D 23 Feb 00:30:22 00:32:55 19° 290° (WNW) 00:35:28 435.315
QB50P2 23 Feb 00:30:38 00:34:39 40° 288° (WNW) 00:38:38 145.880/145.840
PCSat 23 Feb 00:34:45 00:37:47 15° 44° (NE) 00:40:47 145.827
O/OREOS (USA 219) 23 Feb 00:36:05 00:39:00 17° 303° (WNW) 00:41:57 437.305
UKube-1 23 Feb 00:41:00 00:45:14 60° 259° (WSW) 00:49:30 .
FO-29 23 Feb 00:44:07 00:49:42 22° 301° (WNW) 00:55:01 435.910
SPROUT 23 Feb 00:53:19 00:56:10 17° 267° (W) 00:59:02 437.525
BUGSAT 1 23 Feb 01:12:34 01:16:40 51° 287° (WNW) 01:20:47 437.445
ITUPSAT 1 23 Feb 01:13:12 01:16:38 20° 65° (ENE) 01:20:05 437.325
BEESAT 23 Feb 01:21:18 01:25:07 24° 67° (ENE) 01:28:56 436.000
Oscar 19 23 Feb 01:34:50 01:39:56 64° 102° (ESE) 01:45:00 437.125/150
Gurwin Techsat 1B 23 Feb 01:57:04 02:02:19 56° 100° (E) 02:07:32 435.225
AO-7 23 Feb 02:05:10 02:07:39 11° 88° (E) 02:10:08 .
ITAMSAT 1 23 Feb 02:06:01 02:06:46 10° 89° (E) 02:07:30 435.822/435.867
MOZHAYETS 4 23 Feb 02:07:11 02:10:52 24° 68° (ENE) 02:14:34
PCSat 23 Feb 02:16:28 02:21:56 90° 140° (SE) 02:27:22 145.827
SRMSAT 23 Feb 02:38:50 02:41:06 12° 180° (S) 02:43:22 437.500
RS-15 23 Feb 02:40:39 02:53:00 70° 55° (NE) 03:04:45 29.354- 29.394
ITUPSAT 1 23 Feb 02:49:36 02:54:08 42° 261° (W) 02:58:43 437.325
BEESAT 23 Feb 02:58:23 03:02:41 33° 262° (W) 03:07:02 436.000
KKS-1 23 Feb 02:58:39 03:01:59 21° 67° (ENE) 03:05:20 437.445
CUBESAT XI-V 23 Feb 03:00:37 03:02:57 14° 64° (ENE) 03:05:17 437.345
Oscar 19 23 Feb 03:15:48 03:18:41 15° 298° (WNW) 03:21:34 437.125/150
M-CUBED/EXP-1 PRIME 23 Feb 03:29:33 03:31:02 13° 62° (ENE) 03:32:31 437.505
Gurwin Techsat 1B 23 Feb 03:38:16 03:41:47 18° 297° (WNW) 03:45:17 435.225
STARS 23 Feb 03:40:03 03:43:41 26° 69° (ENE) 03:47:19 437.465
ITAMSAT 1 23 Feb 03:41:33 03:46:48 84° 286° (WNW) 03:52:02 435.822/435.867
MOZHAYETS 4 23 Feb 03:43:42 03:47:50 32° 263° (W) 03:52:00
AO-85 23 Feb 03:47:03 03:49:54 16° 111° (ESE) 03:52:38 145.980
AO-7 23 Feb 03:53:21 04:01:41 73° 106° (ESE) 04:09:57 .
PCSat 23 Feb 04:03:46 04:04:28 10° 259° (WSW) 04:05:11 145.827
KKS-1 23 Feb 04:34:22 04:38:20 32° 262° (W) 04:42:20 437.445
CUBESAT XI-V 23 Feb 04:35:11 04:39:48 59° 259° (W) 04:44:25 437.345
RS-15 23 Feb 04:54:16 05:04:30 34° 256° (WSW) 05:14:24 29.354- 29.394
M-CUBED/EXP-1 PRIME 23 Feb 05:02:18 05:05:17 30° 257° (WSW) 05:08:12 437.505
STARS 23 Feb 05:16:19 05:19:56 25° 264° (W) 05:23:35 437.465
LilacSat-2 23 Feb 05:19:18 05:20:41 12° 91° (E) 05:22:03 437.200
ITAMSAT 1 23 Feb 05:24:42 05:25:24 10° 301° (WNW) 05:26:07 435.822/435.867
AO-85 23 Feb 05:25:33 05:30:00 48° 304° (NW) 05:34:09 145.980
NUDT-PHONESAT 23 Feb 05:27:12 05:28:11 11° 91° (E) 05:29:09 437.300
STRAND 1 23 Feb 05:34:49 05:38:04 17° 63° (ENE) 05:41:20 437.568
AO-7 23 Feb 05:47:17 05:53:41 26° 304° (NW) 06:00:04 .
CUTE-I 23 Feb 06:09:50 06:14:59 44° 99° (E) 06:20:05 437.470
KAITUO 1B 23 Feb 06:20:29 06:24:12 55° 100° (E) 06:27:53 145.475/437.950
XW-2F 23 Feb 06:20:47 06:24:36 68° 101° (E) 06:28:21 145.980 - 146.000
DOVE 4 23 Feb 06:23:16 06:27:57 81° 103° (ESE) 06:32:55 437.250
XW-2D 23 Feb 06:23:47 06:27:37 80° 102° (ESE) 06:31:25 145.860 - 145.880
XW-2B 23 Feb 06:28:46 06:32:37 89° 101° (E) 06:36:25 145.730 - 145.750
BEESAT 3 23 Feb 06:31:06 06:34:48 45° 116° (ESE) 06:38:35 437.485
SO-50 23 Feb 06:36:04 06:39:00 17° 44° (NE) 06:41:54 436.795
XW-2C 23 Feb 06:37:19 06:41:09 69° 284° (WNW) 06:44:55 145.795 - 145.815
LilacSat-2 23 Feb 06:51:30 06:55:10 43° 286° (WNW) 06:58:47 437.200
NUDT-PHONESAT 23 Feb 06:58:44 07:02:20 44° 286° (WNW) 07:05:54 437.300
BEESAT 2 23 Feb 07:03:37 07:07:19 41° 115° (ESE) 07:11:04 435.950
STRAND 1 23 Feb 07:11:44 07:16:45 57° 259° (W) 07:21:50 437.568
HO-68 23 Feb 07:14:08 07:20:41 38° 98° (E) 07:27:12 435.675
XW-2A 23 Feb 07:18:55 07:22:18 51° 99° (E) 07:25:40 145.665 - 145.685
AAUSAT CUBESAT 2 23 Feb 07:25:54 07:27:17 11° 91° (E) 07:28:40 437.432
SEEDS 23 Feb 07:27:07 07:30:38 26° 96° (E) 07:34:08 437.485
CUTE-I 23 Feb 07:50:35 07:54:42 23° 295° (WNW) 07:58:48 437.470
CUBEBUG 2 23 Feb 07:51:49 07:56:14 36° 97° (E) 08:00:36 437.445
CUTE 1.7 + AOD 2 23 Feb 08:00:02 08:04:16 79° 284° (WNW) 08:08:27 437.475
DOVE 4 23 Feb 08:04:05 08:05:04 11° 296° (WNW) 08:06:02 437.250
ISS 23 Feb 08:06:53 08:09:48 30° 134° (SE) 08:12:44 437.550
BEESAT 3 23 Feb 08:10:06 08:12:38 16° 313° (NW) 08:15:13 437.485
SO-50 23 Feb 08:15:24 08:19:49 59° 243° (WSW) 08:24:12 436.795
AO-73 23 Feb 08:15:58 08:19:27 21° 94° (E) 08:22:52 145.935
Oscar 11 23 Feb 08:25:51 08:29:18 23° 95° (E) 08:32:41 .
PRISM 23 Feb 08:32:09 08:36:01 43° 73° (ENE) 08:39:54 437.425
UWE-3 23 Feb 08:34:27 08:39:07 66° 101° (E) 08:43:42 435.000/436.395/437.385
Tancredo 1 23 Feb 08:38:10 08:41:25 71° 139° (SE) 08:44:40 437.200
BEESAT 2 23 Feb 08:42:30 08:45:16 18° 313° (NW) 08:48:03 435.950
AAUSAT CUBESAT 2 23 Feb 08:59:02 09:03:01 50° 286° (WNW) 09:06:59 437.432
ZACube-1 23 Feb 09:01:15 09:05:51 77° 101° (E) 09:10:20 437.345
HO-68 23 Feb 09:01:50 09:08:20 40° 295° (WNW) 09:14:51 435.675
SEEDS 23 Feb 09:02:54 09:06:12 23° 291° (WNW) 09:09:29 437.485
O/OREOS (USA 219) 23 Feb 09:06:11 09:10:46 70° 68° (ENE) 09:15:20 437.305
FO-29 23 Feb 09:07:48 09:13:50 31° 63° (ENE) 09:20:19 435.910
DELFI C3 23 Feb 09:19:06 09:22:27 26° 96° (E) 09:25:46 145.870
CUBEBUG 2 23 Feb 09:28:56 09:32:35 22° 293° (WNW) 09:36:12 437.445
UNISAT 6 23 Feb 09:32:00 09:36:26 81° 76° (ENE) 09:41:02 437.425
TIGRISAT 23 Feb 09:33:05 09:37:31 77° 75° (ENE) 09:42:06 435.000
ISS 23 Feb 09:43:19 09:46:14 29° 330° (NNW) 09:49:11 437.550
QB50P2 23 Feb 09:49:18 09:50:07 10° 63° (ENE) 09:50:55 145.880/145.840
AO-73 23 Feb 09:51:38 09:55:42 33° 290° (WNW) 09:59:43 145.935
Oscar 11 23 Feb 10:01:41 10:05:22 28° 290° (WNW) 10:09:04 .
PRISM 23 Feb 10:09:32 10:11:29 13° 267° (W) 10:13:28 437.425
UWE-3 23 Feb 10:12:57 10:14:57 13° 297° (WNW) 10:16:56 435.000/436.395/437.385
Tancredo 1 23 Feb 10:15:42 10:18:01 18° 336° (NNW) 10:20:19 437.200
YUBILEINY 23 Feb 10:23:33 10:32:08 60° 91° (E) 10:40:44 435.215
ZACube-1 23 Feb 10:40:32 10:41:26 10° 298° (WNW) 10:42:18 437.345
FO-29 23 Feb 10:51:42 10:58:23 52° 262° (W) 11:05:48 435.910
DUCHIFAT 1 23 Feb 10:53:45 10:57:43 43° 73° (ENE) 11:01:44 145.980
DELFI C3 23 Feb 10:54:10 10:57:04 20° 291° (WNW) 10:59:57 145.870
EO-79 23 Feb 11:01:30 11:05:40 66° 75° (ENE) 11:09:53 145.935-145.965
AIST 2D 23 Feb 11:02:10 11:05:41 66° 259° (W) 11:09:14 435.315
POLYITAN 1 23 Feb 11:18:12 11:22:26 78° 258° (WSW) 11:26:42 437.675
NANOSAT C BR1 23 Feb 11:20:00 11:24:11 81° 258° (WSW) 11:28:26 145.865
QB50P2 23 Feb 11:21:07 11:25:18 66° 258° (WSW) 11:29:33 145.880/145.840
ISS 23 Feb 11:23:25 11:23:34 10° 349° (N) 11:23:42 437.550
ESTCUBE 1 23 Feb 11:37:30 11:41:58 68° 102° (ESE) 11:46:25 437.505/2401.250
